Lid_Strength_Index
7 6 7 7 8 7 7 7 8 7 7 6 5 6 5 5 5 5 5 5 4 4 3 3 2 2 2 2 1 1 1 1 1 0 0 0 0 0 -0 -0 0 0 1 0
8 7 7 8 7 7 7 7 7 7 7 4 5 5 5 6 5 6 5 5 5 4 4 4 3 3 2 2 2 2 2 2 1 0 0 1 1 0 0 0 1 1 0 0
10 7 8 10 8 7 7 6 6 8 6 6 7 6 6 6 5 5 5 5 5 4 4 3 3 2 3 2 1 1 2 2 2 1 1 1 1 1 1 1 0 1 1 0
10 8 13 7 5 5 7 6 5 6 6 6 6 5 5 4 5 5 5 5 4 4 4 3 3 2 2 1 2 1 2 2 1 1 1 1 1 1 1 0 1 0 1 1
11 10 8 7 6 7 7 7 5 6 5 6 5 5 6 4 3 4 4 4 3 3 2 2 2 2 2 2 1 1 2 2 1 0 1 1 1 1 1 1 1 0 0 0
9 12 13 7 6 5 6 9 4 5 5 6 6 9 7 4 3 4 3 3 3 2 2 2 2 2 2 2 2 2 1 1 1 0 -0 1 0 1 1 1 1 1 1 1
9 10 8 6 5 5 10 9 5 5 5 6 7 6 5 3 4 3 3 2 2 2 2 2 1 1 2 1 2 1 0 0 0 0 0 -0 0 0 0 0 -0 -0 0 -1
8 10 12 5 6 8 6 5 5 5 5 5 5 5 4 4 4 3 3 3 2 2 2 1 1 1 2 2 1 0 0 1 1 1 1 1 1 1 1 1 1 1 1 1
8 8 5 4 5 4 4 5 5 5 4 5 5 5 5 5 4 3 3 2 2 2 2 1 1 1 2 1 0 0 1 1 0 1 2 2 2 2 3 1 2 2 3 3
8 6 5 4 4 3 3 4 4 4 4 4 5 5 5 5 4 3 3 3 2 2 2 2 1 1 1 1 0 0 1 1 0 1 1 0 1 1 1 1 1 1 2 2
7 6 5 4 4 4 3 3 4 4 4 4 4 5 5 4 4 3 3 2 2 2 2 2 1 1 0 0 0 1 1 1 -0 0 0 -0 -0 1 2 1 3 2 1 1
9 6 6 5 4 3 4 4 4 4 4 3 3 4 4 4 3 3 3 2 2 2 2 2 1 1 1 0 1 2 3 1 1 0 0 1 2 2 4 5 6 7 7 5
6 4 4 4 3 3 4 4 4 4 3 4 3 3 3 4 3 3 3 3 3 2 2 2 2 2 1 1 0 1 0 0 1 2 1 2 2 2 2 2 5 6 7 7
3 4 5 4 5 3 3 3 4 3 3 3 3 3 3 3 3 3 3 2 1 1 2 2 2 2 1 1 -0 0 1 5 1 0 0 1 1 2 2 2 2 2 5 5
4 3 3 3 3 3 3 3 4 4 4 4 3 3 3 3 3 2 2 1 2 2 1 1 1 1 0 0 1 1 1 0 1 1 1 2 1 1 2 1 2 1 0 3
4 3 3 4 4 3 4 4 4 4 4 4 3 3 2 2 2 2 2 1 2 2 1 1 1 0 -0 -0 -0 0 0 1 2 1 1 1 1 2 1 2 1 1 1 1
5 5 4 4 4 4 4 3 3 3 3 3 3 3 2 2 2 2 2 1 1 1 1 1 1 -0 -0 -0 -0 0 0 -0 1 0 1 1 1 1 1 1 2 2 1 1
3 3 3 3 4 4 4 3 3 3 3 3 2 2 2 2 3 2 1 1 1 1 1 0 -0 -0 -0 -0 -0 0 0 0 0 1 1 1 1 1 1 1 1 1 1 0
3 3 3 3 3 3 3 3 3 2 2 2 2 3 2 2 2 2 1 1 2 2 1 -0 1 0 -0 -1 0 -0 0 0 0 1 1 2 1 1 1 1 1 1 1 1
3 3 3 3 3 3 3 2 2 2 3 3 2 2 3 2 2 2 1 1 1 1 -1 -0 -0 -0 -0 -1 -0 -0 0 0 1 1 1 1 1 1 1 2 1 1 1 0
3 3 3 3 3 2 2 2 2 3 2 2 2 3 3 1 1 1 1 2 1 -0 -0 -0 -0 -0 -0 -0 -0 0 0 0 1 1 1 1 1 1 1 1 1 0 0 0
3 3 3 3 3 3 3 2 2 2 2 3 2 2 2 2 1 1 0 1 -0 3 0 -0 -1 1 0 1 -0 0 0 1 1 1 1 1 1 1 1 1 1 0 0 0
2 3 3 4 3 3 3 2 2 2 2 2 2 1 2 1 1 1 2 0 -0 1 -0 -0 2 1 1 -0 0 1 0 0 0 1 0 0 0 1 1 0 0 0 0 0
2 2 2 2 3 2 3 3 2 1 1 1 1 1 1 1 1 0 -1 1 2 2 0 -0 -0 2 3 0 0 0 0 -0 -0 0 0 3 -0 -1 0 -0 0 0 1 2
2 2 3 3 4 3 2 2 2 2 2 2 2 0 -0 -0 1 -0 -1 -1 2 1 -0 2 2 2 -0 0 0 0 0 0 0 0 0 0 0 0 0 0 0 1 1 1
3 3 3 3 2 2 2 1 2 2 2 3 1 0 -1 -1 -0 -0 -0 1 -0 1 0 -0 -0 -0 -0 0 -0 0 0 -0 0 0 1 0 0 0 0 0 -0 -0 -0 -0
2 4 3 3 2 1 1 2 2 2 2 1 1 0 -1 -1 -1 0 2 0 0 -0 -0 -0 -0 -0 -0 -0 -0 -0 -0 -0 1 -0 -0 -0 -0 -0 -0 -0 0 -0 -0 -0